Weather History for KDXR - December, 2013

Change the Weather History Date:

Wednesday, December 25, 2013

  Actual Average Record
Temperature  
Mean Temperature 20 °F -  
Max Temperature 25 °F 34 °F 63 °F (1964)
Min Temperature 16 °F 17 °F -10 °F (1980)
Degree Days  
Heating Degree Days 44    
Moisture  
Dew Point 4 °F    
Average Humidity 49    
Maximum Humidity 63    
Minimum Humidity 39    
Precipitation  
Precipitation 0.00 in - - ()
Sea Level Pressure  
Sea Level Pressure 30.47 in    
Wind  
Wind Speed 6 mph (NNW)    
Max Wind Speed 16 mph    
Max Gust Speed 20 mph    
Visibility 10 miles    
Events      
Averages and records for this station are not official NWS values.
T = Trace of Precipitation, MM = Missing Value Source: NWS Daily Summary

Daily Weather History Graph

Daily Weather History Graph

Search for Another Location

Airport or City:

Trip Planner

Search our weather history database for the weather conditions in past years. The results will help you decide how hot, cold, wet, or windy it might be!

Date:

Astronomy

Dec. 25, 2013 Rise Set
Actual Time 7:18 AM EST 4:30 PM EST
Civil Twilight 6:47 AM EST 5:01 PM EST
Nautical Twilight 6:12 AM EST 5:36 PM EST
Astronomical Twilight 5:38 AM EST 6:09 PM EST
Moon No Moon Rise 11:35 AM EST (12/25)
Length of Visible Light 10h 14m
Length of Day
9h 11m
Waning Gibbous, 49% of the Moon is Illuminated
Dec 25
Waning Gibbous
Jan 1
New
Jan 7
First Quarter
Jan 15
Full
Jan 24
Last Quarter

Hourly Weather History & Observations

Time (EST) Temp. Windchill Dew Point Humidity Pressure Visibility Wind Dir Wind Speed Gust Speed Precip Events Conditions
12:53 AM 21.9 °F 13.4 °F 5.0 °F 48% 30.33 in 10.0 mi WNW 6.9 mph - N/A   Clear
1:53 AM 19.9 °F 11.1 °F 3.9 °F 50% 30.36 in 10.0 mi WNW 6.9 mph - N/A   Clear
2:53 AM 19.0 °F 13.9 °F 3.9 °F 52% 30.39 in 10.0 mi WNW 3.5 mph - N/A   Mostly Cloudy
3:53 AM 18.0 °F 12.7 °F 3.9 °F 54% 30.41 in 10.0 mi Variable 3.5 mph - N/A   Clear
4:53 AM 17.1 °F 10.0 °F 3.0 °F 54% 30.42 in 10.0 mi WNW 4.6 mph - N/A   Clear
5:53 AM 17.1 °F 7.6 °F 3.0 °F 54% 30.46 in 10.0 mi NW 6.9 mph - N/A   Clear
6:53 AM 16.0 °F 7.4 °F 3.0 °F 57% 30.47 in 10.0 mi NW 5.8 mph - N/A   Clear
7:53 AM 16.0 °F 8.8 °F 3.0 °F 57% 30.48 in 10.0 mi NW 4.6 mph - N/A   Clear
8:37 AM 19.4 °F 5.0 °F 1.4 °F 46% 30.48 in 10.0 mi North 16.1 mph 19.6 mph N/A   Clear
8:53 AM 19.0 °F 8.2 °F 1.0 °F 46% 30.50 in 10.0 mi North 9.2 mph 17.3 mph N/A   Clear
9:53 AM 19.9 °F 8.6 °F 1.9 °F 46% 30.51 in 10.0 mi NNW 10.4 mph - N/A   Clear
10:53 AM 21.0 °F 9.9 °F 1.9 °F 44% 30.51 in 10.0 mi NW 10.4 mph - N/A   Clear
11:53 AM 23.0 °F 12.4 °F 3.0 °F 42% 30.49 in 10.0 mi North 10.4 mph - N/A   Clear
12:53 PM 24.1 °F 17.0 °F 3.0 °F 40% 30.49 in 10.0 mi North 5.8 mph - N/A   Clear
1:53 PM 25.0 °F 15.5 °F 3.0 °F 39% 30.48 in 10.0 mi NNE 9.2 mph - N/A   Clear
2:53 PM 25.0 °F 18.1 °F 3.0 °F 39% 30.49 in 10.0 mi NNW 5.8 mph - N/A   Clear
3:53 PM 25.0 °F - 3.9 °F 41% 30.50 in 10.0 mi Calm Calm - N/A   Clear
4:53 PM 24.1 °F - 3.0 °F 40% 30.51 in 10.0 mi Calm Calm - N/A   Clear
5:53 PM 24.1 °F - 3.0 °F 40% 30.51 in 10.0 mi Calm Calm - N/A   Scattered Clouds
6:53 PM 23.0 °F - 7.0 °F 50% 30.51 in 10.0 mi Calm Calm - N/A   Clear
7:53 PM 21.9 °F - 8.1 °F 55% 30.52 in 10.0 mi Calm Calm - N/A   Clear
8:53 PM 21.0 °F - 10.0 °F 63% 30.50 in 10.0 mi Calm Calm - N/A   Clear
9:53 PM 23.0 °F 18.4 °F 8.1 °F 53% 30.48 in 10.0 mi SE 3.5 mph - N/A   Mostly Cloudy
10:53 PM 24.1 °F 18.2 °F 10.0 °F 55% 30.48 in 10.0 mi SE 4.6 mph - N/A   Scattered Clouds
11:53 PM 23.0 °F - 9.0 °F 55% 30.45 in 10.0 mi Calm Calm - N/A   Partly Cloudy